CW3508 Weather Reports


Display with metric or nautical units.
time (UTC)temp
F
wind
direction
speed
MPH
gust
MPH
rain 1hr
in
rain 24hr
in
rain mn
in
humidity
%
barometer
mb
20260906183029 98 188 0.0 1.0 0.00 0.00 0.00 55 1007.8
20260906182530 98 188 0.0 1.0 0.00 0.00 0.00 58 1008.1
20260906182045 98 188 0.0 0.0 0.00 0.00 0.00 58 1008.1
20260906181533 98 315 0.0 1.0 0.00 0.00 0.00 58 1008.1
20260906181033 97 180 0.0 1.0 0.00 0.00 0.00 59 1008.2
20260906180542 98 171 0.0 0.0 0.00 0.00 0.00 57 1008.2
20260906180028 98 242 0.0 0.0 0.00 0.00 0.00 58 1008.2
20260906175533 98 235 0.0 0.0 0.00 0.00 0.00 56 1008.6
20260906175021 97 281 0.0 0.0 0.00 0.00 0.00 59 1008.6
20260906174518 97 167 0.0 0.0 0.00 0.00 0.00 57 1008.6
20260906174021 97 166 0.0 0.0 0.00 0.00 0.00 56 1008.7
20260906173520 97 329 0.0 1.0 0.00 0.00 0.00 60 1008.7
20260906173035 97 329 0.0 1.0 0.00 0.00 0.00 59 1008.7
20260906172526 96 162 0.0 2.0 0.00 0.00 0.00 63 1008.9
20260906172027 95 162 0.0 2.0 0.00 0.00 0.00 60 1008.9
20260906171545 95 172 0.0 0.0 0.00 0.00 0.00 62 1008.9
20260906171020 94 172 0.0 0.0 0.00 0.00 0.00 62 1009.2
20260906170549 94 164 0.0 0.0 0.00 0.00 0.00 61 1009.2
20260906170019 94 163 0.0 2.0 0.00 0.00 0.00 64 1009.2
20260906165535 95 163 0.0 2.0 0.00 0.00 0.00 61 1009.5
20260906165026 95 182 0.0 1.0 0.00 0.00 0.00 60 1009.5
20260906164604 95 182 0.0 1.0 0.00 0.00 0.00 65 1009.5
20260906164025 95 182 0.0 1.0 0.00 0.00 0.00 62 1009.6
20260906163537 94 172 0.0 1.0 0.00 0.00 0.00 63 1009.6
20260906163019 93 172 0.0 1.0 0.00 0.00 0.00 67 1009.6
20260906162556 93 172 0.0 1.0 0.00 0.00 0.00 68 1009.7
20260906162026 92 172 0.0 0.0 0.00 0.00 0.00 67 1009.7
20260906161527 91 172 0.0 0.0 0.00 0.00 0.00 70 1009.7
20260906161039 90 164 0.0 0.0 0.00 0.00 0.00 69 1009.8
20260906160525 90 159 0.0 0.0 0.00 0.00 0.00 71 1009.8
20260906160058 89 173 0.0 0.0 0.00 0.00 0.00 73 1009.8
20260906155522 88 173 0.0 0.0 0.00 0.00 0.00 71 1009.8
20260906155053 88 173 0.0 0.0 0.00 0.00 0.00 72 1009.8
20260906154520 88 173 0.0 0.0 0.00 0.00 0.00 74 1009.8
20260906154033 87 182 0.0 0.0 0.00 0.00 0.00 75 1009.8
20260906153534 87 182 0.0 0.0 0.00 0.00 0.00 77 1009.8
20260906153050 86 182 0.0 0.0 0.00 0.00 0.00 79 1009.8
20260906152557 85 182 0.0 0.0 0.00 0.00 0.00 80 1009.8
20260906152039 84 182 0.0 0.0 0.00 0.00 0.00 81 1009.8
20260906151541 84 182 0.0 0.0 0.00 0.00 0.00 80 1009.8
20260906151035 83 182 0.0 0.0 0.00 0.00 0.00 81 1009.8
20260906150556 83 182 0.0 2.0 0.00 0.00 0.00 81 1009.8
20260906150051 83 189 0.0 2.0 0.00 0.00 0.00 81 1009.8
20260906145523 82 178 0.0 1.0 0.00 0.00 0.00 81 1009.7
20260906145051 82 228 0.0 0.0 0.00 0.00 0.00 83 1009.7
20260906144543 82 165 0.0 0.0 0.00 0.00 0.00 82 1009.7
20260906144027 81 165 0.0 0.0 0.00 0.00 0.00 83 1009.7
20260906143528 81 165 0.0 0.0 0.00 0.00 0.00 84 1009.7
20260906143032 81 165 0.0 0.0 0.00 0.00 0.00 84 1009.7
20260906142518 80 165 0.0 0.0 0.00 0.00 0.00 84 1009.7
20260906142020 80 165 0.0 0.0 0.00 0.00 0.00 84 1009.7
20260906141614 80 165 0.0 0.0 0.00 0.00 0.00 85 1009.7
20260906141029 79 165 0.0 0.0 0.00 0.00 0.00 86 1009.7
20260906140602 79 165 0.0 0.0 0.00 0.00 0.00 87 1009.7
20260906140040 79 165 0.0 0.0 0.00 0.00 0.00 87 1009.7
20260906135526 79 165 0.0 0.0 0.00 0.00 0.00 87 1010.0
20260906135037 79 165 0.0 0.0 0.00 0.00 0.00 89 1010.0
20260906134518 78 165 0.0 0.0 0.00 0.00 0.00 89 1010.0
20260906133526 78 165 0.0 0.0 0.00 0.00 0.00 89 1010.2
20260906133037 78 165 0.0 0.0 0.00 0.00 0.00 89 1010.2
20260906132538 78 165 0.0 0.0 0.00 0.00 0.00 90 1010.1
20260906132034 78 165 0.0 0.0 0.00 0.00 0.00 90 1010.1
20260906131536 78 165 0.0 0.0 0.00 0.00 0.00 89 1010.1
20260906131042 77 165 0.0 0.0 0.00 0.00 0.00 89 1009.7
20260906130515 77 165 0.0 0.0 0.00 0.00 0.00 89 1009.7
20260906130021 77 165 0.0 0.0 0.00 0.00 0.00 89 1009.7
20260906125523 77 165 0.0 0.0 0.00 0.00 0.00 89 1009.7
20260906125052 77 165 0.0 0.0 0.00 0.00 0.00 89 1009.7
20260906124547 77 165 0.0 0.0 0.00 0.00 0.00 90 1009.7
20260906124033 77 165 0.0 0.0 0.00 0.00 0.00 90 1009.6
20260906123538 77 165 0.0 0.0 0.00 0.00 0.00 89 1009.6
20260906123027 77 165 0.0 0.0 0.00 0.00 0.00 89 1009.6
20260906122533 77 165 0.0 0.0 0.00 0.00 0.00 89 1009.2
20260906122032 77 165 0.0 0.0 0.00 0.00 0.00 89 1009.2
20260906121522 77 165 0.0 0.0 0.00 0.00 0.00 89 1009.2
20260906121028 77 165 0.0 0.0 0.00 0.00 0.00 89 1008.9
20260906120529 77 165 0.0 0.0 0.00 0.00 0.00 88 1008.9
20260906115529 77 165 0.0 0.0 0.00 0.00 0.00 88 1009.2
20260906115032 77 165 0.0 0.0 0.00 0.00 0.00 88 1009.2
20260906114542 77 165 0.0 0.0 0.00 0.00 0.00 88 1009.2
20260906114033 77 165 0.0 0.0 0.00 0.00 0.00 88 1009.2
20260906113543 77 165 0.0 0.0 0.00 0.00 0.00 88 1009.2
20260906113047 77 165 0.0 0.0 0.00 0.00 0.00 88 1009.2
20260906112016 78 165 0.0 0.0 0.00 0.00 0.00 87 1009.2
20260906111521 78 165 0.0 0.0 0.00 0.00 0.00 87 1009.2
20260906111022 78 165 0.0 0.0 0.00 0.00 0.00 87 1009.2
20260906110515 78 165 0.0 0.0 0.00 0.00 0.00 87 1009.2
20260906110031 78 165 0.0 0.0 0.00 0.00 0.00 87 1009.2
20260906105529 78 165 0.0 0.0 0.00 0.00 0.00 87 1009.2
20260906105026 78 165 0.0 0.0 0.00 0.00 0.00 87 1009.2
20260906104535 78 165 0.0 0.0 0.00 0.00 0.00 87 1009.2
20260906104027 78 165 0.0 0.0 0.00 0.00 0.00 87 1009.3
20260906103600 78 165 0.0 0.0 0.00 0.00 0.00 87 1009.3
20260906103025 78 165 0.0 0.0 0.00 0.00 0.00 87 1009.3
20260906102536 78 165 0.0 0.0 0.00 0.00 0.00 87 1009.4
20260906102037 78 165 0.0 0.0 0.00 0.00 0.00 87 1009.4
20260906101525 78 272 0.0 0.0 0.00 0.00 0.00 88 1009.4
20260906101024 78 272 0.0 0.0 0.00 0.00 0.00 88 1009.2
20260906100524 79 272 0.0 0.0 0.00 0.00 0.00 89 1009.2
20260906100030 79 177 0.0 0.0 0.00 0.00 0.00 91 1009.2
20260906095521 79 177 0.0 0.0 0.00 0.00 0.00 91 1008.6
20260906095028 79 177 0.0 0.0 0.00 0.00 0.00 91 1008.6
20260906094522 79 177 0.0 0.0 0.00 0.00 0.00 91 1008.6
20260906094035 79 177 0.0 0.0 0.00 0.00 0.00 92 1008.7
20260906093541 79 177 0.0 0.0 0.00 0.00 0.00 92 1008.7
20260906093018 79 177 0.0 0.0 0.00 0.00 0.00 92 1008.7
20260906092032 79 177 0.0 0.0 0.00 0.00 0.00 92 1008.6
20260906091538 79 177 0.0 0.0 0.00 0.00 0.00 92 1008.6
20260906091033 79 177 0.0 0.0 0.00 0.00 0.00 92 1008.6
20260906090553 79 177 0.0 0.0 0.00 0.00 0.00 92 1008.6
20260906090037 79 177 0.0 0.0 0.00 0.00 0.00 92 1008.6
20260906085536 79 177 0.0 0.0 0.00 0.00 0.00 92 1008.5
20260906085024 79 177 0.0 0.0 0.00 0.00 0.00 92 1008.5
20260906084521 79 177 0.0 0.0 0.00 0.00 0.00 92 1008.5
20260906084052 79 177 0.0 0.0 0.00 0.00 0.00 92 1008.7
20260906083516 79 177 0.0 0.0 0.00 0.00 0.00 92 1008.7
20260906083036 79 177 0.0 0.0 0.00 0.00 0.00 92 1008.7
20260906082543 79 177 0.0 0.0 0.00 0.00 0.00 92 1008.8
20260906082030 79 177 0.0 0.0 0.00 0.00 0.00 92 1008.8
20260906081523 79 177 0.0 0.0 0.00 0.00 0.00 92 1008.8
20260906081042 79 177 0.0 0.0 0.00 0.00 0.00 92 1009.2
20260906080519 79 177 0.0 0.0 0.00 0.00 0.00 91 1009.2
20260906075525 79 177 0.0 0.0 0.00 0.00 0.00 91 1008.7
20260906075050 79 177 0.0 0.0 0.00 0.00 0.00 91 1008.7
20260906074539 79 177 0.0 0.0 0.00 0.00 0.00 91 1008.7
20260906074031 79 177 0.0 0.0 0.00 0.00 0.00 91 1008.6
20260906073532 79 177 0.0 0.0 0.00 0.00 0.00 91 1008.6
20260906073040 79 177 0.0 0.0 0.00 0.00 0.00 91 1008.6
20260906072532 79 177 0.0 0.0 0.00 0.00 0.00 91 1008.7
20260906072045 79 177 0.0 0.0 0.00 0.00 0.00 91 1008.7
20260906071601 79 177 0.0 0.0 0.00 0.00 0.00 91 1008.7
20260906071036 79 177 0.0 0.0 0.00 0.00 0.00 91 1008.7
20260906070529 79 177 0.0 0.0 0.00 0.00 0.00 91 1008.7
20260906070032 79 177 0.0 0.0 0.00 0.00 0.00 90 1008.7
20260906065536 79 177 0.0 0.0 0.00 0.00 0.00 90 1009.0
20260906065030 79 177 0.0 0.0 0.00 0.00 0.00 90 1009.0
20260906064532 79 177 0.0 0.0 0.00 0.00 0.00 90 1009.0
20260906064014 79 177 0.0 0.0 0.00 0.00 0.00 90 1009.2
20260906063024 79 177 0.0 0.0 0.00 0.00 0.00 90 1009.2
20260906062537 79 177 0.0 0.0 0.00 0.00 0.00 90 1009.2
20260906062021 79 177 0.0 0.0 0.00 0.00 0.00 89 1009.2
20260906061533 79 177 0.0 0.0 0.00 0.00 0.00 89 1009.2
20260906061015 80 177 0.0 0.0 0.00 0.00 0.00 89 1009.5
20260906060552 80 177 0.0 0.0 0.00 0.00 0.00 89 1009.5
20260906060046 80 177 0.0 0.0 0.00 0.00 0.00 89 1009.5
20260906055549 80 177 0.0 0.0 0.00 0.00 0.00 89 1009.4
20260906055031 80 177 0.0 0.0 0.00 0.00 0.00 89 1009.4
20260906054529 80 177 0.0 0.0 0.00 0.00 0.00 88 1009.4
20260906054041 80 177 0.0 0.0 0.00 0.00 0.00 88 1009.6
20260906053556 80 177 0.0 0.0 0.00 0.00 0.00 88 1009.6
20260906053033 80 177 0.0 0.0 0.00 0.00 0.00 88 1009.6
20260906052544 80 177 0.0 0.0 0.00 0.00 0.00 88 1009.4
20260906052025 80 177 0.0 0.0 0.00 0.00 0.00 88 1009.4
20260906051535 80 177 0.0 0.0 0.00 0.00 0.00 88 1009.4
20260906051023 80 177 0.0 0.0 0.00 0.00 0.00 87 1009.7
20260906050532 80 177 0.0 0.0 0.00 0.00 0.00 87 1009.7
20260906050035 81 177 0.0 0.0 0.00 0.00 0.00 87 1009.7
20260906045542 80 177 0.0 0.0 0.00 0.00 0.00 87 1009.6
20260906045028 81 177 0.0 0.0 0.00 0.00 0.00 87 1009.6
20260906044536 81 177 0.0 0.0 0.00 0.00 0.00 87 1009.6
20260906044037 81 177 0.0 0.0 0.00 0.00 0.00 87 1009.3
20260906043526 81 177 0.0 0.0 0.00 0.00 0.00 87 1009.3
20260906043032 81 177 0.0 0.0 0.00 0.00 0.00 87 1009.3
20260906042532 81 177 0.0 0.0 0.00 0.00 0.00 87 1009.4
20260906042038 81 177 0.0 0.0 0.00 0.00 0.00 87 1009.4
20260906041525 81 177 0.0 0.0 0.00 0.00 0.00 87 1009.4
20260906041058 81 177 0.0 0.0 0.00 0.00 0.00 86 1009.4
20260906040541 81 177 0.0 0.0 0.00 0.00 0.00 86 1009.4
20260906040027 81 177 0.0 0.0 0.00 0.00 0.00 86 1009.4
20260906035532 81 177 0.0 0.0 0.00 0.00 0.00 86 1009.5
20260906035038 81 177 0.0 0.0 0.00 0.00 0.00 86 1009.5
20260906034525 81 177 0.0 0.0 0.00 0.00 0.00 86 1009.5
20260906034022 81 177 0.0 0.0 0.00 0.00 0.00 86 1009.6
20260906033520 81 177 0.0 0.0 0.00 0.00 0.00 85 1009.6
20260906033035 81 177 0.0 0.0 0.00 0.00 0.00 86 1009.6
20260906032554 81 177 0.0 0.0 0.00 0.00 0.00 86 1009.4
20260906032032 81 177 0.0 0.0 0.00 0.00 0.00 86 1009.4
20260906031529 82 177 0.0 0.0 0.00 0.00 0.00 85 1009.4
20260906031017 82 177 0.0 0.0 0.00 0.00 0.00 85 1009.2
20260906030522 82 177 0.0 0.0 0.00 0.00 0.00 85 1009.2
20260906030030 82 181 0.0 0.0 0.00 0.00 0.00 85 1009.2
20260906025533 82 181 0.0 0.0 0.00 0.00 0.00 85 1009.3
20260906025020 82 181 0.0 0.0 0.00 0.00 0.00 85 1009.3
20260906024523 82 181 0.0 0.0 0.00 0.00 0.00 85 1009.3
20260906024022 83 181 0.0 0.0 0.00 0.00 0.00 84 1009.3
20260906023540 83 181 0.0 0.0 0.00 0.00 0.00 84 1009.3
20260906023017 83 181 0.0 0.0 0.00 0.00 0.00 84 1009.3
20260906022515 83 181 0.0 0.0 0.00 0.00 0.00 84 1009.2
20260906022032 83 181 0.0 0.0 0.00 0.00 0.00 84 1009.2
20260906021541 83 181 0.0 0.0 0.00 0.00 0.00 84 1009.2
20260906021036 83 181 0.0 0.0 0.00 0.00 0.00 83 1009.2
20260906020523 83 181 0.0 0.0 0.00 0.00 0.00 83 1009.2
20260906020018 83 181 0.0 0.0 0.00 0.00 0.00 84 1009.2
20260906015535 83 181 0.0 0.0 0.00 0.00 0.00 83 1008.7
20260906015034 83 181 0.0 0.0 0.00 0.00 0.00 83 1008.7
20260906014536 83 180 0.0 0.0 0.00 0.00 0.00 83 1008.7
20260906014017 84 180 0.0 0.0 0.00 0.00 0.00 82 1008.5
20260906013518 84 180 0.0 0.0 0.00 0.00 0.00 82 1008.5
20260906013036 84 180 0.0 0.0 0.00 0.00 0.00 82 1008.5
20260906012524 84 180 0.0 0.0 0.00 0.00 0.00 82 1008.1
20260906012026 84 180 0.0 0.0 0.00 0.00 0.00 82 1008.1
20260906011536 84 180 0.0 0.0 0.00 0.00 0.00 81 1008.1
20260906011026 84 157 0.0 0.0 0.00 0.00 0.00 82 1008.0
20260906010531 85 157 0.0 0.0 0.00 0.00 0.00 82 1008.0
20260906010027 85 157 0.0 0.0 0.00 0.00 0.00 81 1008.0
20260906005544 85 157 0.0 0.0 0.00 0.00 0.00 81 1007.9
20260906005026 85 157 0.0 0.0 0.00 0.00 0.00 80 1007.9
20260906004532 85 157 0.0 0.0 0.00 0.00 0.00 80 1007.9
20260906004040 85 157 0.0 0.0 0.00 0.00 0.00 80 1007.7
20260906003531 86 157 0.0 0.0 0.00 0.00 0.00 79 1007.7
20260906003031 86 157 0.0 0.0 0.00 0.00 0.00 79 1007.7
20260906002537 86 157 0.0 0.0 0.00 0.00 0.00 79 1008.0
20260906002033 86 157 0.0 0.0 0.00 0.00 0.00 78 1008.0
20260906001536 86 157 0.0 0.0 0.00 0.00 0.00 78 1008.0
20260906001021 87 157 0.0 1.0 0.00 0.00 0.00 78 1008.1
20260906000027 87 195 0.0 0.0 0.00 0.00 0.00 77 1008.1
20260905235536 87 195 0.0 0.0 0.00 0.00 0.00 77 1008.1
20260905235036 88 165 0.0 1.0 0.00 0.00 0.00 76 1008.1
20260905234524 88 156 0.0 4.0 0.00 0.00 0.00 76 1008.1
20260905234025 88 165 1.0 4.0 0.00 0.00 0.00 76 1008.0
20260905233530 88 173 0.0 3.0 0.00 0.00 0.00 76 1008.0
20260905233047 88 194 0.0 3.0 0.00 0.00 0.00 76 1008.0
20260905232536 89 186 0.0 1.0 0.00 0.00 0.00 77 1007.9
20260905232016 89 163 0.0 1.0 0.00 0.00 0.00 76 1007.9
20260905231520 89 160 0.0 5.0 0.00 0.00 0.00 76 1007.9
20260905231032 89 161 0.0 5.0 0.00 0.00 0.00 75 1007.9
20260905230533 89 171 0.0 0.0 0.00 0.00 0.00 75 1007.9
20260905230039 90 148 0.0 0.0 0.00 0.00 0.00 75 1007.9
20260905225525 90 148 0.0 0.0 0.00 0.00 0.00 74 1008.0
20260905225035 90 148 0.0 1.0 0.00 0.00 0.00 73 1008.0
20260905224535 91 214 0.0 1.0 0.00 0.00 0.00 73 1008.0
20260905224025 91 206 0.0 1.0 0.00 0.00 0.00 72 1007.6
20260905223520 91 157 0.0 1.0 0.00 0.00 0.00 71 1007.6
20260905223020 92 157 0.0 4.0 0.00 0.00 0.00 71 1007.6
20260905222519 92 175 0.0 4.0 0.00 0.00 0.00 70 1007.6
20260905222034 92 119 0.0 0.0 0.00 0.00 0.00 70 1007.6
20260905221535 92 118 0.0 1.0 0.00 0.00 0.00 70 1007.6
20260905221056 92 144 0.0 1.0 0.00 0.00 0.00 69 1007.5
20260905220521 93 155 0.0 1.0 0.00 0.00 0.00 69 1007.5
20260905220054 93 154 0.0 6.0 0.00 0.00 0.00 68 1007.5
20260905215544 93 189 0.0 6.0 0.00 0.00 0.00 67 1007.2
20260905215043 94 167 0.0 6.0 0.00 0.00 0.00 66 1007.2
20260905214533 95 142 0.0 1.0 0.00 0.00 0.00 65 1007.2
20260905214021 95 161 0.0 6.0 0.00 0.00 0.00 63 1007.4
20260905213522 95 167 0.0 4.0 0.00 0.00 0.00 62 1007.4
20260905213024 96 167 1.0 4.0 0.00 0.00 0.00 61 1007.4
20260905212523 96 200 0.0 1.0 0.00 0.00 0.00 60 1007.6
20260905212033 96 200 0.0 2.0 0.00 0.00 0.00 60 1007.6
20260905211029 96 192 0.0 0.0 0.00 0.00 0.00 58 1007.6
20260905210535 96 223 0.0 3.0 0.00 0.00 0.00 58 1007.6
20260905210029 96 158 1.0 6.0 0.00 0.00 0.00 58 1007.6
20260905205541 96 175 3.0 6.0 0.00 0.00 0.00 58 1007.6
20260905205041 96 187 0.0 1.0 0.00 0.00 0.00 59 1007.6
20260905204544 96 161 0.0 3.0 0.00 0.00 0.00 58 1007.6
20260905204032 96 161 0.0 3.0 0.00 0.00 0.00 59 1007.7
20260905203520 96 142 0.0 0.0 0.00 0.00 0.00 60 1007.7
20260905203027 96 144 0.0 0.0 0.00 0.00 0.00 62 1007.7
20260905202529 96 132 0.0 0.0 0.00 0.00 0.00 61 1007.8
20260905202021 97 132 0.0 0.0 0.00 0.00 0.00 61 1007.8
20260905201600 97 132 0.0 0.0 0.00 0.00 0.00 59 1007.8
20260905201040 97 224 0.0 0.0 0.00 0.00 0.00 59 1007.9
20260905200529 97 205 0.0 4.0 0.00 0.00 0.00 61 1007.9
20260905200029 97 215 0.0 6.0 0.00 0.00 0.00 59 1007.9
20260905195602 98 159 1.0 6.0 0.00 0.00 0.00 57 1008.1
20260905195045 98 133 0.0 1.0 0.00 0.00 0.00 56 1008.1
20260905194539 98 199 0.0 1.0 0.00 0.00 0.00 51 1008.1
20260905194042 98 197 0.0 1.0 0.00 0.00 0.00 53 1008.2
20260905193529 98 197 0.0 1.0 0.00 0.00 0.00 53 1008.2
20260905193014 98 168 0.0 1.0 0.00 0.00 0.00 53 1008.2
20260905192550 98 169 0.0 3.0 0.00 0.00 0.00 53 1008.6
20260905192030 98 132 0.0 3.0 0.00 0.00 0.00 52 1008.6
20260905191518 98 261 0.0 2.0 0.00 0.00 0.00 54 1008.6
20260905191025 98 177 0.0 1.0 0.00 0.00 0.00 53 1008.7
20260905190536 98 178 0.0 0.0 0.00 0.00 0.00 54 1008.7
20260905190020 98 177 0.0 0.0 0.00 0.00 0.00 54 1008.7
20260905185518 99 177 0.0 1.0 0.00 0.00 0.00 53 1008.9
20260905185044 99 177 0.0 1.0 0.00 0.00 0.00 52 1008.9
20260905184525 99 181 0.0 1.0 0.00 0.00 0.00 52 1008.9
20260905184021 100 181 0.0 1.0 0.00 0.00 0.00 51 1009.2
20260905183514 100 181 0.0 1.0 0.00 0.00 0.00 53 1009.2